Find Marecs 2

NORAD ID: 15386 Int'l Des: 1984-114 Owner: ESA Country: I-ESA operational
HEO

現在のビュー

3D地球を読み込み中...

About Marecs 2

Marecs 2 (NORAD 15386) is a satellite launched Nov 10, 1984 by ESA of I-ESA. It operates in HEO orbit with a mass of 580.00 kg.

次回通過

Passes for default location (London). Set your location on the main map for personalized predictions.

高度履歴

Loading altitude history...

軌道要素

1 15386U 84114B 26194.96435502 -.00000135 00000-0 00000+0 0 9996
2 15386 13.4571 332.7520 0112217 56.2002 126.3758 0.95928861112933
Epoch: Jul 13, 2026 • Age: 15 hours

現在のステータス

高度 36582.5 km
遠地点 / 近地点 N/A
速度 3.06 km/s
衛星直下点 8.66°N, 134.69°W
打ち上げ日 Nov 10, 1984
運用期間 41.6 years
タイプ other

技術仕様

分類 Payload
質量 580.00 kg
乾燥質量 470.00 kg
総質量 1050.00 kg
長さ 2.50 m
直径 2.00 m
スパン 13.80 m
形状 Box + 2 Pan
製造者 BAES
バスタイプ OTS
フェーズステータス In Orbit
所有者/国 ESA/I-ESA

Most Searched